Weather History for Homestead AFB, FL

Change the Weather History Date:

Sunday, September 22, 2013

  Actual Average Record
Temperature  
Mean Temperature 82 °F -  
Max Temperature 89 °F 89 °F 93 °F (1943)
Min Temperature 75 °F 72 °F 66 °F (1938)
Cooling Degree Days 16    
Growing Degree Days 32 (Base 50)    
Moisture  
Dew Point 75 °F    
Average Humidity 84    
Maximum Humidity 100    
Minimum Humidity 61    
Precipitation  
Precipitation 0.00 in - - ()
Sea Level Pressure  
Sea Level Pressure 29.85 in    
Wind  
Wind Speed 3 mph (SSW)    
Max Wind Speed 10 mph    
Max Gust Speed -    
Visibility 10 miles    
Events Rain    
Averages and records for this station are not official NWS values.
T = Trace of Precipitation, MM = Missing Value Source: NWS Daily Summary

Daily Weather History Graph

Daily Weather History Graph

Search for Another Location

Airport:

Trip Planner

Search our weather history database for the weather conditions in past years. The results will help you decide how hot, cold, wet, or windy it might be!

Date:

Astronomy

Sep. 22, 2013 Rise Set
Actual Time 7:10 AM EDT 7:17 PM EDT
Civil Twilight 6:47 AM EDT 7:40 PM EDT
Nautical Twilight 6:20 AM EDT 8:07 PM EDT
Astronomical Twilight 5:53 AM EDT 8:33 PM EDT
Moon 9:31 PM EDT (9/22) 10:05 AM EDT (9/22)
Length of Visible Light 12h 53m
Length of Day
12h 07m
Waning Gibbous, 89% of the Moon is Illuminated
Sep 22
Waning Gibbous
Sep 26
Last Quarter
Oct 4
New
Oct 11
First Quarter
Oct 18
Full

Hourly Weather History & Observations

Time (EDT) Temp. Heat Index Dew Point Humidity Pressure Visibility Wind Dir Wind Speed Gust Speed Precip Events Conditions
12:58 AM 78.1 °F - 74.8 °F 90% 29.84 in 10.0 mi Calm Calm - N/A   Clear
1:58 AM 77.4 °F - 75.2 °F 93% 29.84 in 10.0 mi Calm Calm - N/A   Clear
2:58 AM 75.7 °F - 74.3 °F 95% 29.82 in 10.0 mi SW 3.5 mph - N/A   Clear
3:58 AM 76.1 °F - 74.3 °F 94% 29.81 in 10.0 mi SE 2.3 mph - N/A   Clear
4:58 AM 76.6 °F - 74.1 °F 92% 29.81 in 10.0 mi ESE 2.3 mph - N/A   Clear
5:58 AM 75.7 °F - 73.6 °F 93% 29.82 in 10.0 mi North 2.3 mph - N/A   Clear
6:58 AM 75.7 °F - 73.6 °F 93% 29.84 in 10.0 mi West 2.3 mph - N/A   Partly Cloudy
7:49 AM 75.2 °F - 75.2 °F 100% 29.84 in 10.0 mi SE 2.3 mph - N/A Rain Light Rain
7:58 AM 76.1 °F - 74.7 °F 95% 29.85 in 10.0 mi ENE 1.2 mph - 0.00 in Rain Light Rain
7:59 AM 77.0 °F - 75.2 °F 94% 29.84 in 10.0 mi Calm Calm - N/A   Mostly Cloudy
8:05 AM 77.0 °F - 75.2 °F 94% 29.84 in 10.0 mi Calm Calm - N/A Rain Light Rain
8:15 AM 78.8 °F - 77.0 °F 94% 29.85 in 10.0 mi SW 2.3 mph - N/A Rain Light Rain
8:26 AM 78.8 °F - 75.2 °F 89% 29.85 in 10.0 mi South 2.3 mph - N/A   Partly Cloudy
8:58 AM 80.1 °F 85.8 °F 77.0 °F 90% 29.85 in 10.0 mi South 4.6 mph - 0.00 in   Clear
9:58 AM 83.3 °F 90.2 °F 74.3 °F 74% 29.86 in 10.0 mi South 9.2 mph - N/A   Partly Cloudy
10:58 AM 84.9 °F 92.1 °F 73.9 °F 69% 29.87 in 10.0 mi South 8.1 mph - N/A   Partly Cloudy
11:58 AM 87.4 °F 95.8 °F 74.1 °F 64% 29.86 in 10.0 mi SSW 6.9 mph - N/A   Partly Cloudy
12:58 PM 87.8 °F 97.6 °F 75.4 °F 66% 29.85 in 10.0 mi SSW 10.4 mph - N/A   Clear
1:58 PM 88.3 °F 97.4 °F 74.1 °F 63% 29.84 in 10.0 mi SW 8.1 mph - N/A   Clear
2:58 PM 88.9 °F 97.6 °F 73.9 °F 61% 29.83 in 10.0 mi SSW 10.4 mph - N/A   Partly Cloudy
3:58 PM 88.2 °F 98.0 °F 74.8 °F 65% 29.80 in 10.0 mi SW 9.2 mph - N/A   Clear
4:58 PM 88.3 °F 98.4 °F 75.2 °F 65% 29.79 in 10.0 mi SW 10.4 mph - N/A   Clear
5:58 PM 87.4 °F 96.2 °F 74.5 °F 65% 29.81 in 10.0 mi SW 8.1 mph - N/A   Clear
6:58 PM 84.4 °F 93.9 °F 76.6 °F 77% 29.83 in 10.0 mi South 9.2 mph - N/A   Partly Cloudy
7:58 PM 82.0 °F 89.9 °F 76.6 °F 84% 29.85 in 10.0 mi SSW 4.6 mph - N/A   Partly Cloudy
8:58 PM 81.0 °F 87.5 °F 76.5 °F 86% 29.87 in 8.0 mi SW 1.2 mph - N/A   Clear
9:58 PM 80.1 °F 85.5 °F 76.3 °F 88% 29.89 in 10.0 mi SSW 4.6 mph - N/A   Clear
10:58 PM 79.5 °F - 75.9 °F 89% 29.90 in 10.0 mi SSW 2.3 mph - N/A   Clear
11:23 PM 78.8 °F - 77.0 °F 94% 29.89 in 7.0 mi South 3.5 mph - N/A   Clear
11:33 PM 78.8 °F - 77.0 °F 94% 29.89 in 8.0 mi South 3.5 mph - N/A   Clear
11:58 PM 79.0 °F - 76.8 °F 93% 29.91 in 6.0 mi Calm Calm - N/A   Clear